Hourly Weather Roundup
Issued by NWS Central Illinois

Home | Current Version | Previous Version | Text Only | Print | Product List | Glossary On
Versions: 1 2 3 4 5 6 7 8 9 10 11 12 13 14 15 16 17 18 19 20 21 22 23 24 25 26 27 28 29 30 31 32 33 34 35 36 37 38 39 40 41 42 43 44 45 46 47 48 49 50
000
NZUS43 KILX 221210
HWRILX

Area Weather Roundup
National Weather Service Lincoln IL
700 AM CDT SAT JUL 22 2017

NOTE:  "FAIR" indicates few or no clouds below 12,000 feet, with
       no sigificant weather and/or obstructions to visibility.


CITY           SKY/WX    TMP DP  RH WIND       PRES   REMARKS
Bloomington    TSTM      70  68  94 N16G28    29.94R FOG
6HR MIN TEMP:  70; 6HR MAX TEMP:  79; 6HR PCP:  0.14;

Champaign      CLOUDY    74  70  87 N6        29.88R
6HR MIN TEMP:  74; 6HR MAX TEMP:  81; 6HR PCP: TRACE;

Danville       PTSUNNY   73  72  97 NW7       29.85R
6HR MIN TEMP:  71; 6HR MAX TEMP:  82;

Decatur        MOSUNNY   77  73  87 N5        29.89R
6HR MIN TEMP:  77; 6HR MAX TEMP:  83; 6HR PCP:  0.02;

Effingham      SUNNY     80  76  89 SW7       29.90S HX  85
6HR MIN TEMP:  79; 6HR MAX TEMP:  84;

Flora          SUNNY     80  77  91 SW3       29.89S FOG     HX  84
6HR MIN TEMP:  76; 6HR MAX TEMP:  83;

Galesburg      CLOUDY    68  67  99 SE8       29.90F
6HR MIN TEMP:  68; 6HR MAX TEMP:  80; 6HR PCP:  0.76;

Jacksonville   CLOUDY    78  73  82 CALM      29.89R HX  81
6HR MIN TEMP:  78; 6HR MAX TEMP:  82;

Lacon          LGT RAIN  69  69 100 SW5       29.91R
6HR MIN TEMP:  68; 6HR MAX TEMP:  73; 6HR PCP:  0.76;

Lawrenceville  SUNNY     78  76  93 SW5       29.89R FOG     HX  81
6HR MIN TEMP:  77; 6HR MAX TEMP:  82;

Litchfield     SUNNY     75  73  93 S5        29.88R
6HR MIN TEMP:  73; 6HR MAX TEMP:  81;

$$


CITY           SKY/WX    TMP DP  RH WIND       PRES   REMARKS
Lincoln        LGT RAIN  73  72  95 N15       29.93R
6HR MIN TEMP:  73; 6HR MAX TEMP:  84; 6HR PCP:  0.02;

Macomb         RAIN      69  67  96 NE17      29.96F
6HR MIN TEMP:  69; 6HR MAX TEMP:  83; 6HR PCP:  0.42;

Mattoon        MOSUNNY   80  76  87 SW8       29.86S HX  86
6HR MIN TEMP:  80; 6HR MAX TEMP:  83;

Mt Carmel AP   SUNNY     78  74  88 SW6       29.89S HX  81
6HR MIN TEMP:  77; 6HR MAX TEMP:  82;

Olney-Noble AP SUNNY     77  75  93 CALM      29.90S FOG
Paris AP       CLOUDY    78  76  95 W3        29.87S
6HR MIN TEMP:  77; 6HR MAX TEMP:  80;

Peoria         TSTM      70  69  97 CALM      29.95F FOG
6HR MIN TEMP:  70; 6HR MAX TEMP:  83; 6HR PCP:  0.40;

Pontiac        RAIN      70  70  99 N9        29.93R
6HR MIN TEMP:  70; 6HR MAX TEMP:  73; 6HR PCP:  0.20;

Rantoul        CLOUDY    75  73  91 N5        29.89R
6HR MIN TEMP:  74; 6HR MAX TEMP:  83;

Robinson       SUNNY     78  75  91 SW5       29.88F HX  80
Springfield    CLOUDY    78  77  96 CALM      29.88R FOG     HX  81
6HR MIN TEMP:  78; 6HR MAX TEMP:  86; 6HR PCP:  0.02;

Taylorville    CLOUDY    77  75  94 CALM      29.88R
6HR MIN TEMP:  76; 6HR MAX TEMP:  82;

$$

...REGIONAL REPORTS...


CITY           SKY/WX    TMP DP  RH WIND       PRES   REMARKS
Chicago O`Hare LGT RAIN  72  68  87 SW10      29.81R
Kankakee       NOT AVBL
Moline         CLOUDY    70  67  90 S15       29.77F
Mount Sterling DRIZZLE   78  70  76 N24G30    29.92R HX  80
Mount Vernon   SUNNY     80  76  87 SW5       29.90R HX  86
Pittsfield     CLOUDY    83  71  67 CALM      29.89R HX  87
Quincy         CLOUDY    81  71  71 N10       29.89R HX  85
Rockford       LGT RAIN  72  67  84 S9        29.77F
$$


CITY           SKY/WX    TMP DP  RH WIND       PRES   REMARKS
Burlington     PTSUNNY   71  71 100 SE13      29.89F
Cedar Rapids   LGT RAIN  69  69 100 S6G25     29.76S
Des Moines     CLOUDY    78  75  90 E9        29.76F HX  81
Kirksville     CLOUDY    81  72  74 N13       29.87R HX  85
Ottumwa        CLOUDY    72  71  97 SE18G30   29.84R
St Louis       MOSUNNY   85  72  65 SW14      29.87R HX  91
$$


CITY           SKY/WX    TMP DP  RH WIND       PRES   REMARKS
Terre Haute    CLOUDY    78  75  90 S7        29.87S HX  81
Evansville     SUNNY     80  74  81 SW7       29.91R HX  85
Indianapolis   CLOUDY    75  70  84 S7        29.88S
Lafayette      CLOUDY    72  72 100 NW8       29.86R
Madison        CLOUDY    71  69  93 CALM      29.78F
Milwaukee      CLOUDY    71  69  93 NW7       29.79R
$$






USA.gov is the U.S. government's official web portal to all federal, state and local government web resources and services.